GW3780 Weather Reports


Display with metric or nautical units.
time (UTC)temp
F
wind
direction
speed
MPH
gust
MPH
rain 1hr
in
rain 24hr
in
rain mn
in
humidity
%
barometer
mb
20260905091136 70 325 1.0 2.0 0.00 0.00 0.00 99 1012.2
20260905090630 70 292 1.0 2.0 0.00 0.00 0.00 99 1011.9
20260905090126 70 317 0.0 1.0 0.00 0.00 0.00 99 1012.0
20260905085624 70 317 0.0 2.0 0.00 0.00 0.00 99 1012.0
20260905085121 70 308 1.0 2.0 0.00 0.00 0.00 99 1012.1
20260905084619 70 316 0.0 2.0 0.00 0.00 0.00 99 1012.0
20260905084114 70 250 0.0 1.0 0.00 0.00 0.00 99 1012.0
20260905083608 70 212 0.0 2.0 0.00 0.00 0.00 99 1012.0
20260905083100 70 173 0.0 1.0 0.00 0.00 0.00 99 1012.3
20260905082555 70 293 0.0 0.0 0.00 0.00 0.00 99 1012.1
20260905082051 70 305 0.0 1.0 0.00 0.00 0.00 99 1012.2
20260905081550 70 323 0.0 2.0 0.00 0.00 0.00 99 1012.2
20260905081044 70 286 0.0 2.0 0.00 0.00 0.00 99 1012.3
20260905080538 70 329 0.0 1.0 0.00 0.00 0.00 99 1012.3
20260905080033 70 235 1.0 2.0 0.00 0.00 0.00 99 1012.3
20260905075527 70 291 1.0 1.0 0.00 0.00 0.00 99 1012.5
20260905075026 70 306 0.0 2.0 0.00 0.00 0.00 99 1012.6
20260905074521 70 285 0.0 1.0 0.00 0.00 0.00 99 1012.7
20260905074017 70 313 1.0 1.0 0.00 0.00 0.00 99 1012.7
20260905073512 70 293 0.0 1.0 0.00 0.00 0.00 99 1012.7
20260905073008 70 320 0.0 1.0 0.00 0.00 0.00 99 1012.9
20260905072502 70 276 1.0 2.0 0.00 0.00 0.00 99 1013.1
20260905071957 71 327 1.0 2.0 0.00 0.00 0.00 99 1012.8
20260905071455 71 267 1.0 1.0 0.00 0.00 0.00 99 1012.8
20260905070954 71 297 1.0 1.0 0.00 0.00 0.00 99 1012.9
20260905070450 71 315 0.0 1.0 0.00 0.00 0.00 99 1012.9
20260905065950 71 287 0.0 2.0 0.00 0.00 0.00 99 1013.0
20260905065448 71 269 0.0 2.0 0.00 0.00 0.00 99 1012.9
20260905064943 71 299 0.0 1.0 0.00 0.00 0.00 99 1013.2
20260905064438 71 245 0.0 1.0 0.00 0.00 0.00 99 1013.0
20260905063933 71 263 0.0 1.0 0.00 0.00 0.00 99 1013.1
20260905063427 71 180 0.0 0.0 0.00 0.00 0.00 99 1013.2
20260905062924 71 321 0.0 1.0 0.00 0.00 0.00 99 1013.0
20260905062418 71 301 0.0 2.0 0.00 0.00 0.00 99 1013.3
20260905061913 71 326 2.0 2.0 0.00 0.00 0.00 99 1013.1
20260905061412 71 309 0.0 0.0 0.00 0.00 0.00 99 1013.2
20260905060912 71 325 0.0 1.0 0.00 0.00 0.00 99 1013.4
20260905060408 71 326 0.0 1.0 0.00 0.00 0.00 99 1013.3
20260905055907 71 293 0.0 0.0 0.00 0.00 0.00 99 1013.4
20260905055403 71 269 0.0 1.0 0.00 0.00 0.00 99 1013.7
20260905054902 71 343 0.0 1.0 0.00 0.00 0.00 99 1013.8
20260905054358 71 202 0.0 2.0 0.00 0.00 0.00 99 1013.9
20260905053858 71 337 0.0 1.0 0.00 0.00 0.00 99 1014.0
20260905053353 71 310 0.0 2.0 0.00 0.00 0.00 99 1014.2
20260905052849 71 230 0.0 2.0 0.00 0.00 0.00 99 1014.0
20260905052348 71 297 0.0 1.0 0.00 0.00 0.00 99 1014.2
20260905051847 71 225 0.0 1.0 0.00 0.00 0.00 99 1014.4
20260905051343 71 302 1.0 1.0 0.00 0.00 0.00 99 1014.3
20260905050841 71 285 0.0 1.0 0.00 0.00 0.00 99 1014.3
20260905050337 71 297 0.0 1.0 0.00 0.00 0.00 99 1014.7
20260905045837 71 322 0.0 1.0 0.00 0.00 0.00 99 1014.9
20260905045332 71 303 1.0 2.0 0.00 0.00 0.00 99 1014.9
20260905044827 71 311 0.0 1.0 0.00 0.00 0.00 99 1014.7
20260905044323 71 336 0.0 1.0 0.00 0.00 0.00 99 1014.7
20260905043823 71 330 1.0 2.0 0.00 0.00 0.00 99 1014.7
20260905043316 71 343 0.0 1.0 0.00 0.00 0.00 99 1015.1
20260905042811 71 326 0.0 2.0 0.00 0.00 0.00 99 1015.0
20260905042310 71 309 0.0 2.0 0.00 0.00 0.00 99 1015.0
20260905041806 71 310 0.0 2.0 0.00 0.00 0.00 99 1015.0
20260905041302 72 316 1.0 1.0 0.00 0.00 0.00 99 1015.0
20260905040756 72 308 0.0 1.0 0.00 0.00 0.00 99 1015.1
20260905040255 72 302 1.0 2.0 0.00 0.00 0.00 99 1015.0
20260905035750 72 281 0.0 1.0 0.00 0.37 0.37 99 1014.9
20260905035246 72 326 0.0 2.0 0.00 0.37 0.37 99 1015.3
20260905034743 72 321 0.0 2.0 0.00 0.37 0.37 99 1015.2
20260905034242 72 275 1.0 2.0 0.00 0.37 0.37 99 1015.0
20260905033741 72 333 1.0 2.0 0.00 0.37 0.37 99 1015.3
20260905033237 72 305 1.0 1.0 0.00 0.37 0.37 99 1015.2
20260905032736 72 257 1.0 2.0 0.00 0.37 0.37 99 1015.4
20260905032232 72 202 0.0 1.0 0.00 0.37 0.37 99 1015.2
20260905031726 72 268 1.0 2.0 0.00 0.37 0.37 99 1015.2
20260905031222 72 329 0.0 2.0 0.00 0.37 0.37 99 1015.1
20260905030717 72 229 0.0 1.0 0.00 0.37 0.37 99 1015.2
20260905030212 72 309 1.0 2.0 0.00 0.37 0.37 99 1015.0
20260905025707 72 232 0.0 2.0 0.00 0.37 0.37 99 1015.1
20260905025203 72 251 0.0 2.0 0.00 0.37 0.37 99 1014.9
20260905024658 72 308 1.0 2.0 0.00 0.37 0.37 99 1015.1
20260905024154 72 316 0.0 2.0 0.00 0.37 0.37 99 1014.9
20260905023648 72 231 0.0 2.0 0.00 0.37 0.37 99 1015.2
20260905023143 72 310 0.0 1.0 0.00 0.37 0.37 99 1015.4
20260905022642 72 325 0.0 1.0 0.00 0.37 0.37 99 1015.2
20260905022138 72 321 1.0 1.0 0.00 0.37 0.37 99 1015.2
20260905021632 72 321 2.0 2.0 0.00 0.37 0.37 99 1015.3
20260905021128 72 337 1.0 2.0 0.00 0.37 0.37 99 1015.5
20260905020627 72 226 0.0 1.0 0.00 0.37 0.37 99 1015.1
20260905020123 72 208 0.0 2.0 0.00 0.37 0.37 99 1015.2
20260905015621 73 239 1.0 3.0 0.00 0.37 0.37 99 1014.9
20260905015115 73 256 1.0 2.0 0.00 0.37 0.37 99 1014.9
20260905014609 72 299 0.0 1.0 0.00 0.37 0.37 99 1015.1
20260905014105 72 195 0.0 2.0 0.00 0.37 0.37 99 1015.0
20260905013602 72 293 0.0 2.0 0.00 0.37 0.37 99 1014.9
20260905013057 72 292 0.0 2.0 0.00 0.37 0.37 99 1014.9
20260905012556 72 237 0.0 2.0 0.00 0.37 0.37 99 1014.9
20260905012054 72 242 0.0 1.0 0.00 0.37 0.37 99 1014.5
20260905011549 72 229 0.0 0.0 0.00 0.37 0.37 99 1014.4
20260905011044 72 310 1.0 1.0 0.00 0.37 0.37 99 1014.4
20260905010539 72 233 0.0 2.0 0.00 0.37 0.37 99 1014.1
20260905010035 72 226 1.0 1.0 0.00 0.37 0.37 99 1014.2
20260905005530 72 324 1.0 2.0 0.00 0.37 0.37 99 1013.9
20260905005020 72 317 0.0 2.0 0.00 0.37 0.37 99 1014.1
20260905004515 72 304 2.0 2.0 0.00 0.37 0.37 99 1014.1
20260905004009 72 305 0.0 1.0 0.00 0.37 0.37 99 1014.2
20260905003505 72 321 0.0 2.0 0.00 0.37 0.37 99 1013.9
20260905003001 73 285 2.0 2.0 0.00 0.37 0.37 99 1013.5
20260905002456 72 306 0.0 2.0 0.00 0.37 0.37 99 1014.2
20260905001950 72 327 0.0 2.0 0.00 0.37 0.37 99 1014.3
20260905001445 72 331 1.0 2.0 0.00 0.37 0.37 99 1013.8
20260905000939 72 292 0.0 2.0 0.00 0.37 0.37 99 1013.6
20260905000435 72 318 2.0 2.0 0.00 0.37 0.37 99 1013.7
20260904235930 72 323 0.0 2.0 0.00 0.37 0.37 99 1013.6
20260904235426 72 345 0.0 2.0 0.00 0.37 0.37 99 1013.6
20260904234925 72 314 1.0 2.0 0.00 0.37 0.37 99 1013.8
20260904234420 72 308 2.0 3.0 0.00 0.37 0.37 99 1013.7
20260904233916 72 326 1.0 2.0 0.00 0.37 0.37 99 1013.7
20260904233411 72 250 1.0 2.0 0.00 0.37 0.37 99 1013.7
20260904232908 72 227 2.0 3.0 0.02 0.37 0.37 99 1013.8
20260904232404 72 263 0.0 2.0 0.02 0.37 0.37 99 1014.4
20260904231859 72 317 0.0 2.0 0.14 0.37 0.37 99 1015.0
20260904231355 72 311 0.0 2.0 0.14 0.37 0.37 99 1014.8
20260904230850 72 211 1.0 2.0 0.00 0.35 0.35 99 1015.2
20260904230349 72 322 0.0 2.0 0.00 0.35 0.35 99 1015.0
20260904225844 73 283 2.0 2.0 0.00 0.35 0.35 99 1015.2
20260904225342 73 321 2.0 2.0 0.02 0.35 0.35 99 1014.9
20260904224841 73 307 2.0 2.0 0.07 0.35 0.35 99 1014.4
20260904224337 73 259 1.0 3.0 0.02 0.34 0.34 99 1014.5
20260904223837 73 185 0.0 2.0 0.00 0.34 0.34 99 1015.3
20260904223337 73 325 0.0 3.0 0.00 0.34 0.34 99 1015.1
20260904222833 73 326 0.0 2.0 0.00 0.34 0.34 99 1015.5
20260904222328 73 264 0.0 2.0 0.00 0.34 0.34 99 1015.5
20260904221828 73 339 0.0 2.0 0.00 0.34 0.34 98 1015.4
20260904221328 73 201 0.0 2.0 0.02 0.34 0.34 98 1015.1
20260904220823 73 314 1.0 3.0 0.61 0.34 0.34 99 1015.6
20260904220322 73 340 2.0 3.0 1.32 0.32 0.32 99 1015.7
20260904215818 73 311 0.0 3.0 1.18 0.26 0.26 98 1015.6
20260904215313 74 306 2.0 3.0 0.47 0.10 0.10 97 1016.4
20260904214809 75 298 2.0 2.0 0.24 0.06 0.06 95 1015.4
20260904214304 75 315 2.0 2.0 0.02 0.02 0.02 92 1014.6
20260904213802 74 292 2.0 3.0 0.00 0.02 0.02 92 1014.3
20260904213258 73 334 1.0 4.0 0.09 0.02 0.02 91 1014.6
20260904212753 74 278 2.0 5.0 0.09 0.02 0.02 92 1015.2
20260904212248 78 314 4.0 12.0 0.00 0.00 0.00 82 1015.2
20260904211743 81 134 3.0 10.0 0.00 0.00 0.00 78 1015.4
20260904211238 85 296 2.0 4.0 0.00 0.00 0.00 74 1014.9
20260904210733 89 298 3.0 5.0 0.00 0.00 0.00 67 1014.5
20260904210227 91 321 1.0 2.0 0.00 0.00 0.00 65 1013.3
20260904205724 92 305 2.0 2.0 0.00 0.00 0.00 62 1013.3
20260904205220 92 313 2.0 2.0 0.00 0.00 0.00 64 1013.5
20260904204716 93 314 2.0 2.0 0.00 0.00 0.00 61 1013.1
20260904204212 93 311 0.0 1.0 0.00 0.00 0.00 58 1013.2
20260904203707 94 224 0.0 1.0 0.00 0.00 0.00 59 1013.3
20260904203204 93 333 0.0 2.0 0.00 0.00 0.00 60 1012.8
20260904202659 93 213 0.0 2.0 0.00 0.00 0.00 60 1012.9
20260904202155 93 302 2.0 2.0 0.00 0.00 0.00 63 1013.1
20260904201650 93 0 0.0 2.0 0.00 0.00 0.00 62 1012.8
20260904201144 93 315 0.0 1.0 0.00 0.00 0.00 64 1012.8
20260904200638 92 302 2.0 2.0 0.00 0.00 0.00 62 1012.9
20260904200134 92 304 0.0 2.0 0.00 0.00 0.00 63 1013.0
20260904195632 92 293 1.0 2.0 0.00 0.00 0.00 62 1013.5
20260904195131 92 294 1.0 2.0 0.00 0.00 0.00 63 1013.6
20260904194626 92 309 2.0 2.0 0.00 0.00 0.00 63 1013.6
20260904194120 93 301 2.0 2.0 0.00 0.00 0.00 62 1013.5
20260904193615 94 302 0.0 2.0 0.00 0.00 0.00 58 1013.7
20260904193112 95 310 1.0 2.0 0.00 0.00 0.00 58 1013.9
20260904192612 95 279 1.0 2.0 0.00 0.00 0.00 58 1013.7
20260904192108 96 242 3.0 3.0 0.00 0.00 0.00 57 1013.9
20260904191604 96 304 1.0 2.0 0.00 0.00 0.00 57 1013.9
20260904191100 95 304 0.0 2.0 0.00 0.00 0.00 57 1013.9
20260904190555 95 339 2.0 3.0 0.00 0.00 0.00 57 1014.0
20260904190052 95 297 0.0 2.0 0.00 0.00 0.00 58 1013.6
20260904185548 96 323 2.0 4.0 0.00 0.00 0.00 57 1014.0
20260904185042 96 341 1.0 2.0 0.00 0.00 0.00 58 1014.5
20260904184537 96 311 0.0 2.0 0.00 0.00 0.00 57 1014.4
20260904184032 95 329 0.0 2.0 0.00 0.00 0.00 58 1014.6
20260904183527 95 300 3.0 3.0 0.00 0.00 0.00 58 1014.6
20260904183022 96 308 2.0 3.0 0.00 0.00 0.00 56 1014.6
20260904182518 96 223 2.0 2.0 0.00 0.00 0.00 57 1014.8
20260904182017 96 217 0.0 2.0 0.00 0.00 0.00 57 1014.7
20260904181513 96 290 0.0 2.0 0.00 0.00 0.00 57 1014.9
20260904181008 95 141 0.0 2.0 0.00 0.00 0.00 58 1015.0
20260904180507 95 281 2.0 2.0 0.00 0.00 0.00 57 1014.9
20260904180003 95 330 3.0 4.0 0.00 0.00 0.00 57 1015.1
20260904175456 96 322 3.0 4.0 0.00 0.00 0.00 59 1015.3
20260904174955 95 278 0.0 4.0 0.00 0.00 0.00 57 1015.2
20260904174450 95 303 2.0 2.0 0.00 0.00 0.00 56 1015.4
20260904173948 94 308 0.0 3.0 0.00 0.00 0.00 59 1015.6
20260904173447 94 306 0.0 3.0 0.00 0.00 0.00 60 1015.5
20260904172942 94 309 0.0 2.0 0.00 0.00 0.00 59 1015.4
20260904172438 94 323 0.0 1.0 0.00 0.00 0.00 61 1015.5
20260904171932 93 324 1.0 3.0 0.00 0.00 0.00 61 1015.5
20260904171428 93 322 1.0 2.0 0.00 0.00 0.00 61 1015.4
20260904170924 93 350 2.0 2.0 0.00 0.00 0.00 61 1015.3
20260904170419 92 276 0.0 2.0 0.00 0.00 0.00 61 1015.3
20260904165914 93 290 1.0 2.0 0.00 0.00 0.00 62 1015.6
20260904165413 92 299 2.0 3.0 0.00 0.00 0.00 62 1015.5
20260904164913 92 300 2.0 3.0 0.00 0.00 0.00 63 1015.6
20260904164413 92 180 0.0 3.0 0.00 0.00 0.00 64 1015.4
20260904163909 92 288 1.0 2.0 0.00 0.00 0.00 65 1015.5
20260904163409 92 306 2.0 3.0 0.00 0.00 0.00 64 1015.6
20260904162908 91 57 0.0 2.0 0.00 0.00 0.00 64 1015.7
20260904162403 91 298 0.0 4.0 0.00 0.00 0.00 64 1015.9
20260904161853 91 294 2.0 7.0 0.00 0.00 0.00 65 1015.7
20260904161348 91 328 2.0 2.0 0.00 0.00 0.00 63 1015.9
20260904160844 92 346 0.0 2.0 0.00 0.00 0.00 63 1016.1
20260904160338 91 296 0.0 2.0 0.00 0.00 0.00 64 1015.7
20260904155833 91 299 2.0 3.0 0.00 0.00 0.00 65 1015.9
20260904155328 91 318 2.0 3.0 0.00 0.00 0.00 65 1015.9
20260904154826 91 6 1.0 3.0 0.00 0.00 0.00 64 1016.2
20260904154321 91 24 3.0 3.0 0.00 0.00 0.00 64 1016.2
20260904153818 91 294 2.0 3.0 0.00 0.00 0.00 66 1016.3
20260904153313 91 307 1.0 3.0 0.00 0.00 0.00 67 1016.2
20260904152809 91 312 2.0 3.0 0.00 0.00 0.00 67 1016.1
20260904152306 90 295 0.0 2.0 0.00 0.00 0.00 67 1016.2
20260904151759 90 291 1.0 3.0 0.00 0.00 0.00 68 1015.8
20260904151257 90 300 2.0 3.0 0.00 0.00 0.00 71 1016.2
20260904150754 89 9 2.0 4.0 0.00 0.00 0.00 69 1016.2
20260904150248 89 303 2.0 3.0 0.00 0.00 0.00 73 1016.1
20260904145746 89 275 0.0 2.0 0.00 0.00 0.00 74 1016.3
20260904145242 88 214 2.0 2.0 0.00 0.00 0.00 74 1016.1
20260904144737 88 205 0.0 2.0 0.00 0.00 0.00 75 1016.2
20260904144233 88 278 1.0 2.0 0.00 0.00 0.00 75 1015.9
20260904143728 88 224 0.0 1.0 0.00 0.00 0.00 74 1015.9
20260904143225 87 269 0.0 3.0 0.00 0.00 0.00 75 1015.9
20260904142721 87 291 0.0 1.0 0.00 0.00 0.00 76 1015.9
20260904142218 87 229 0.0 2.0 0.00 0.00 0.00 76 1015.8
20260904141717 86 290 1.0 3.0 0.00 0.00 0.00 77 1015.9
20260904141213 86 316 1.0 2.0 0.00 0.00 0.00 78 1015.8
20260904140708 86 256 0.0 2.0 0.00 0.00 0.00 78 1015.6
20260904140203 86 230 0.0 2.0 0.00 0.00 0.00 78 1016.2
20260904135702 85 297 0.0 1.0 0.00 0.00 0.00 78 1015.9
20260904135158 85 291 1.0 2.0 0.00 0.00 0.00 79 1015.8
20260904134653 85 166 1.0 1.0 0.00 0.00 0.00 79 1015.9
20260904134152 84 205 0.0 2.0 0.00 0.00 0.00 79 1015.8
20260904133648 85 326 0.0 3.0 0.00 0.00 0.00 80 1015.8
20260904133144 84 302 0.0 2.0 0.00 0.00 0.00 80 1015.4
20260904132643 85 315 0.0 1.0 0.00 0.00 0.00 79 1015.6
20260904132138 84 300 1.0 1.0 0.00 0.00 0.00 79 1015.6
20260904131637 84 307 1.0 2.0 0.00 0.00 0.00 81 1015.5
20260904131133 83 302 1.0 2.0 0.00 0.00 0.00 81 1015.8
20260904130632 83 212 0.0 3.0 0.00 0.00 0.00 81 1015.6
20260904130127 83 269 0.0 0.0 0.00 0.00 0.00 82 1015.6
20260904125624 82 0 0.0 2.0 0.00 0.00 0.00 82 1015.7
20260904125119 82 217 1.0 2.0 0.00 0.00 0.00 81 1015.7
20260904124614 82 262 0.0 2.0 0.00 0.00 0.00 82 1015.7
20260904124110 81 196 1.0 3.0 0.00 0.00 0.00 83 1015.9
20260904123609 80 207 2.0 2.0 0.00 0.00 0.00 85 1015.9
20260904123106 80 304 0.0 1.0 0.00 0.00 0.00 86 1015.8
20260904122600 80 207 0.0 2.0 0.00 0.00 0.00 85 1015.7
20260904122055 80 311 1.0 1.0 0.00 0.00 0.00 87 1015.5
20260904121550 80 218 0.0 2.0 0.00 0.00 0.00 86 1015.7
20260904121046 80 291 0.0 2.0 0.00 0.00 0.00 87 1015.9
20260904120542 79 241 2.0 3.0 0.00 0.00 0.00 87 1015.7
20260904120037 79 298 0.0 3.0 0.00 0.00 0.00 87 1015.9
20260904115532 79 311 1.0 2.0 0.00 0.00 0.00 88 1015.8
20260904115027 79 273 0.0 2.0 0.00 0.00 0.00 88 1015.8
20260904114521 78 0 0.0 2.0 0.00 0.00 0.00 89 1015.7
20260904114016 78 209 0.0 2.0 0.00 0.00 0.00 90 1015.6
20260904113516 78 220 2.0 3.0 0.00 0.00 0.00 90 1015.7
20260904113010 77 217 0.0 1.0 0.00 0.00 0.00 92 1015.5
20260904112505 76 309 0.0 1.0 0.00 0.00 0.00 94 1015.6
20260904112001 76 315 1.0 1.0 0.00 0.00 0.00 94 1015.6
20260904111456 76 293 0.0 1.0 0.00 0.00 0.00 95 1015.8
20260904110952 76 269 0.0 1.0 0.00 0.00 0.00 95 1015.7
20260904110451 76 344 0.0 1.0 0.00 0.00 0.00 95 1015.5
20260904105940 75 322 0.0 1.0 0.00 0.00 0.00 95 1015.6
20260904105435 75 336 0.0 0.0 0.00 0.00 0.00 95 1015.4
20260904104925 75 322 0.0 0.0 0.00 0.00 0.00 95 1015.5
20260904104424 75 322 0.0 0.0 0.00 0.00 0.00 95 1015.5
20260904103921 75 333 0.0 0.0 0.00 0.00 0.00 95 1015.5
20260904103416 75 310 0.0 1.0 0.00 0.00 0.00 95 1015.6
20260904102913 75 326 0.0 0.0 0.00 0.00 0.00 95 1015.3
20260904102408 75 318 0.0 1.0 0.00 0.00 0.00 94 1015.6
20260904101904 75 313 0.0 1.0 0.00 0.00 0.00 94 1015.4
20260904101400 75 343 0.0 1.0 0.00 0.00 0.00 94 1015.6
20260904100855 75 321 0.0 1.0 0.00 0.00 0.00 93 1015.5
20260904100351 75 343 0.0 0.0 0.00 0.00 0.00 93 1015.5
20260904095845 75 352 0.0 1.0 0.00 0.00 0.00 93 1015.5
20260904095340 75 0 0.0 1.0 0.00 0.00 0.00 92 1015.4
20260904094835 75 6 0.0 1.0 0.00 0.00 0.00 92 1015.5
20260904094330 76 343 0.0 0.0 0.00 0.00 0.00 92 1015.4
20260904093826 76 246 0.0 0.0 0.00 0.00 0.00 92 1015.5
20260904093321 76 303 0.0 1.0 0.00 0.00 0.00 91 1015.5
20260904092816 76 293 0.0 0.0 0.00 0.00 0.00 91 1015.6
20260904092313 76 309 0.0 1.0 0.00 0.00 0.00 90 1015.6
20260904091808 76 322 0.0 0.0 0.00 0.00 0.00 90 1015.7